Weather in Pokrovsk

Ukraine / Donetsk Region     48°16′51″N   37°10′45″E
temp.,
°C
wind,
m/s
gust,
m/s
humid.,
%
clouds,
%
prec.,
mm/h
press.,
hPa
HPBL,
m
26 july, mon
mon2600:00+22ne485348 0.0 1019176
03:00+19ene46601 0.0 102091
06:00+19ene47650 0.0 1020116
09:00+25ene56500 0.0 1020442
12:00+29ene54370 0.0 10202080
15:00+31ne443133 0.0 10182736
18:00+28e354259 0.0 1018306
21:00+23nne410530 0.0 1019177
27 july, tue
tue2700:00+22ne5125223 0.0 1019240
03:00+19ne49600 0.0 1019146
06:00+18ene49647 0.0 1020145
09:00+25ene46440 0.0 1019479
12:00+30ese56330 0.0 10191915
15:00+30ese653223 0.0 10182439
18:00+29ese34388 0.0 1018622
21:00+22ssw11541 0.0 101912
28 july, wed
wed2800:00+20s22621 0.0 102014
03:00+19wsw11714 0.0 101911
06:00+19wsw22755 0.0 102036
09:00+25wsw22565 0.0 1019446
12:00+29sw33385 0.0 10181927
15:00+31sw333237 0.0 10172708
18:00+30ssw333773 0.0 10161878
21:00+26ssw344472 0.0 101650
29 july, thu
thu2900:00+22sw5125625 0.0 1016234
03:00+23wsw4125378 0.1 1015356
06:00+21sw367328 0.2 1015123
09:00+26sw59525 0.3 1014636
12:00+30sw68370 0.0 10141762
15:00+32wsw673645 0.0 10132422
18:00+31wsw45420 0.0 10121906
21:00+23e1181100 4.0 101332
30 july, fri
fri3000:00+20sw488594 4.3 1013140
03:00+20ssw467899 8.3 101290
06:00+20wsw358168 0.0 101289
09:00+26sw456529 0.0 1012418
12:00+30wsw45485 0.0 10111211
15:00+32wsw44411 0.0 10101904
18:00+31ssw344714 0.0 1009537
21:00+23nnw4782100 0.7 1011118